When you browse on this site, cookies collect data to enhance your experience and personalize the content and advertising you see.
Visit our Privacy Policy to learn more. By continuing to use the site, you agree to this use of cookies and data.
  • In France
  • List of Countries
  • For 7 days
  • Water Temperature
  • Weather Map
  • Weather Widgets
  • user-avatar
    Login

    Hourly Weather Brasília

    Today, 22 November, Friday

    Time Temperature Precipitation Wind Pressure Humidity
    00:00 +19°C° 1 mm 3 mps 665 mmHg 90%
    01:00 +19°C° 0.2 mm 3 mps 664 mmHg 91%
    02:00 +19°C° 0.2 mm 3 mps 664 mmHg 92%
    03:00 +19°C° 0.2 mm 3 mps 664 mmHg 93%
    04:00 +19°C° 0.1 mm 2 mps 664 mmHg 93%
    05:00 +19°C° 0.1 mm 2 mps 664 mmHg 93%
    06:00 +19°C° 0.1 mm 2 mps 664 mmHg 92%
    07:00 +20°C° 0 mm 3 mps 665 mmHg 88%
    08:00 +21°C° 0 mm 4 mps 666 mmHg 84%
    09:00 +22°C° 0 mm 4 mps 666 mmHg 79%
    10:00 +22°C° 0 mm 4 mps 666 mmHg 77%
    11:00 +22°C° 0 mm 4 mps 666 mmHg 76%
    12:00 +23°C° 0 mm 4 mps 665 mmHg 74%
    13:00 +24°C° 0 mm 3 mps 665 mmHg 72%
    14:00 +25°C° 0 mm 3 mps 664 mmHg 70%
    15:00 +25°C° 0 mm 3 mps 664 mmHg 68%
    16:00 +24°C° 0.2 mm 2 mps 664 mmHg 72%
    17:00 +24°C° 0.2 mm 2 mps 664 mmHg 76%
    18:00 +23°C° 0.2 mm 1 mps 664 mmHg 80%
    19:00 +22°C° 0.1 mm 1 mps 664 mmHg 82%
    20:00 +21°C° 0.1 mm 1 mps 664 mmHg 83%
    21:00 +21°C° 0.1 mm 1 mps 664 mmHg 85%
    22:00 +20°C° 0 mm 1 mps 664 mmHg 84%
    23:00 +20°C° 0 mm 1 mps 664 mmHg 82%

    Tomorrow, 23 November, Saturday

    Time Temperature Precipitation Wind Pressure Humidity
    00:00 +20°C° 0 mm 1 mps 664 mmHg 81%
    01:00 +20°C° 0 mm 1 mps 664 mmHg 81%
    02:00 +20°C° 0 mm 1 mps 663 mmHg 82%
    03:00 +20°C° 0 mm 1 mps 663 mmHg 82%
    04:00 +20°C° 0 mm 1 mps 663 mmHg 82%
    05:00 +20°C° 0 mm 1 mps 663 mmHg 82%
    06:00 +20°C° 0 mm 1 mps 663 mmHg 82%
    07:00 +22°C° 0 mm 1 mps 664 mmHg 75%
    08:00 +24°C° 0 mm 2 mps 665 mmHg 68%
    09:00 +26°C° 0 mm 2 mps 666 mmHg 61%
    10:00 +27°C° 0.3 mm 3 mps 666 mmHg 59%
    11:00 +28°C° 0.3 mm 3 mps 666 mmHg 57%
    12:00 +29°C° 0.3 mm 4 mps 666 mmHg 55%
    13:00 +28°C° 0.6 mm 3 mps 665 mmHg 56%
    14:00 +28°C° 0.6 mm 3 mps 665 mmHg 58%
    15:00 +28°C° 0.6 mm 3 mps 664 mmHg 59%
    16:00 +27°C° 0.7 mm 2 mps 664 mmHg 65%
    17:00 +26°C° 0.7 mm 2 mps 664 mmHg 70%
    18:00 +25°C° 0.7 mm 1 mps 663 mmHg 76%
    19:00 +24°C° 0.2 mm 1 mps 663 mmHg 78%
    20:00 +23°C° 0.2 mm 1 mps 664 mmHg 80%
    21:00 +20°C° 0.2 mm 0 mps 664 mmHg 81%
    22:00 +22°C° 0.4 mm 1 mps 664 mmHg 83%
    23:00 +22°C° 0.4 mm 1 mps 664 mmHg 84%

    Day after tomorrow, 24 November, Sunday

    Time Temperature Precipitation Wind Pressure Humidity
    00:00 +21°C° 0.4 mm 1 mps 664 mmHg 85%
    01:00 +21°C° 0.1 mm 1 mps 663 mmHg 85%
    02:00 +21°C° 0.1 mm 1 mps 663 mmHg 86%
    03:00 +21°C° 0.1 mm 1 mps 663 mmHg 86%
    04:00 +21°C° 0 mm 1 mps 663 mmHg 86%
    05:00 +21°C° 0 mm 1 mps 663 mmHg 86%
    06:00 +21°C° 0 mm 1 mps 663 mmHg 86%
    07:00 +23°C° 0 mm 2 mps 664 mmHg 81%
    08:00 +24°C° 0 mm 2 mps 664 mmHg 75%
    09:00 +26°C° 0 mm 3 mps 665 mmHg 69%
    10:00 +26°C° 1.1 mm 3 mps 665 mmHg 68%
    11:00 +27°C° 1.1 mm 3 mps 665 mmHg 66%
    12:00 +28°C° 1.1 mm 4 mps 665 mmHg 65%
    13:00 +27°C° 1.6 mm 3 mps 664 mmHg 67%
    14:00 +27°C° 1.6 mm 3 mps 664 mmHg 69%
    15:00 +26°C° 1.6 mm 3 mps 663 mmHg 72%
    16:00 +25°C° 1.4 mm 2 mps 663 mmHg 75%
    17:00 +24°C° 1.4 mm 2 mps 663 mmHg 79%
    18:00 +23°C° 1.4 mm 1 mps 663 mmHg 83%
    19:00 +23°C° 0 mm 1 mps 663 mmHg 83%
    20:00 +22°C° 0 mm 1 mps 663 mmHg 82%
    21:00 +20°C° 0 mm 0 mps 663 mmHg 82%
    22:00 +20°C° 0 mm 0 mps 663 mmHg 83%
    23:00 +20°C° 0 mm 0 mps 663 mmHg 83%

    25 November, Monday

    Time Temperature Precipitation Wind Pressure Humidity
    00:00 +19°C° 0 mm 0 mps 663 mmHg 83%
    01:00 +19°C° 0.5 mm 0 mps 663 mmHg 84%
    02:00 +21°C° 0.5 mm 1 mps 662 mmHg 85%
    03:00 +21°C° 0.5 mm 1 mps 662 mmHg 86%
    04:00 +21°C° 0.3 mm 1 mps 662 mmHg 87%
    05:00 +21°C° 0.3 mm 1 mps 662 mmHg 87%
    06:00 +19°C° 0.3 mm 0 mps 663 mmHg 88%
    07:00 +22°C° 0.5 mm 1 mps 663 mmHg 83%
    08:00 +24°C° 0.5 mm 1 mps 664 mmHg 78%
    09:00 +26°C° 0.5 mm 1 mps 665 mmHg 74%
    10:00 +27°C° 0.8 mm 1 mps 665 mmHg 70%
    11:00 +28°C° 0.8 mm 2 mps 664 mmHg 66%
    12:00 +28°C° 0.8 mm 2 mps 664 mmHg 63%
    13:00 +28°C° 1 mm 2 mps 664 mmHg 63%
    14:00 +28°C° 1 mm 2 mps 663 mmHg 63%
    15:00 +28°C° 1 mm 2 mps 663 mmHg 63%
    16:00 +27°C° 2.5 mm 2 mps 662 mmHg 70%
    17:00 +25°C° 2.5 mm 2 mps 662 mmHg 78%
    18:00 +23°C° 2.5 mm 2 mps 661 mmHg 85%
    19:00 +23°C° 0.2 mm 2 mps 662 mmHg 83%
    20:00 +23°C° 0.2 mm 1 mps 662 mmHg 82%
    21:00 +21°C° 0.2 mm 0 mps 663 mmHg 81%
    22:00 +20°C° 0 mm 0 mps 663 mmHg 82%
    23:00 +20°C° 0 mm 0 mps 663 mmHg 82%

    26 November, Tuesday

    Time Temperature Precipitation Wind Pressure Humidity
    00:00 +22°C° 0 mm 1 mps 663 mmHg 82%
    01:00 +21°C° 0.1 mm 1 mps 662 mmHg 83%
    02:00 +21°C° 0.1 mm 1 mps 662 mmHg 84%
    03:00 +21°C° 0.1 mm 1 mps 661 mmHg 84%
    04:00 +19°C° 0 mm 0 mps 662 mmHg 85%
    05:00 +19°C° 0 mm 0 mps 662 mmHg 85%
    06:00 +19°C° 0 mm 0 mps 663 mmHg 86%
    07:00 +21°C° 0.2 mm 0 mps 663 mmHg 81%
    08:00 +25°C° 0.2 mm 1 mps 664 mmHg 76%
    09:00 +26°C° 0.2 mm 1 mps 665 mmHg 72%
    10:00 +27°C° 1.9 mm 1 mps 665 mmHg 70%
    11:00 +27°C° 1.9 mm 2 mps 665 mmHg 68%
    12:00 +28°C° 1.9 mm 2 mps 664 mmHg 67%
    13:00 +28°C° 2.2 mm 2 mps 664 mmHg 68%
    14:00 +27°C° 2.2 mm 2 mps 663 mmHg 70%
    15:00 +27°C° 2.2 mm 2 mps 663 mmHg 71%
    16:00 +26°C° 1.2 mm 2 mps 662 mmHg 75%
    17:00 +25°C° 1.2 mm 2 mps 662 mmHg 79%
    18:00 +24°C° 1.2 mm 1 mps 662 mmHg 83%
    19:00 +23°C° 0.1 mm 1 mps 662 mmHg 84%
    20:00 +23°C° 0.1 mm 1 mps 662 mmHg 84%
    21:00 +22°C° 0.1 mm 1 mps 663 mmHg 85%
    22:00 +22°C° 0.1 mm 1 mps 663 mmHg 86%
    23:00 +22°C° 0.1 mm 1 mps 663 mmHg 86%

    27 November, Wednesday

    Time Temperature Precipitation Wind Pressure Humidity
    00:00 +22°C° 0.1 mm 1 mps 663 mmHg 87%
    01:00 +21°C° 0 mm 1 mps 662 mmHg 88%
    02:00 +21°C° 0 mm 1 mps 662 mmHg 88%
    03:00 +21°C° 0 mm 1 mps 662 mmHg 89%
    04:00 +21°C° 0 mm 1 mps 662 mmHg 89%
    05:00 +21°C° 0 mm 1 mps 663 mmHg 90%
    06:00 +21°C° 0 mm 1 mps 663 mmHg 90%
    07:00 +21°C° 0.5 mm 2 mps 664 mmHg 86%
    08:00 +24°C° 0.5 mm 3 mps 664 mmHg 83%
    09:00 +25°C° 0.5 mm 4 mps 665 mmHg 79%
    10:00 +26°C° 0.7 mm 4 mps 665 mmHg 77%
    11:00 +27°C° 0.7 mm 4 mps 665 mmHg 74%
    12:00 +27°C° 0.7 mm 4 mps 665 mmHg 72%
    13:00 +27°C° 1.1 mm 4 mps 664 mmHg 73%
    14:00 +27°C° 1.1 mm 4 mps 664 mmHg 74%
    15:00 +26°C° 1.1 mm 3 mps 663 mmHg 76%
    16:00 +26°C° 1.1 mm 3 mps 663 mmHg 79%
    17:00 +25°C° 1.1 mm 3 mps 663 mmHg 83%
    18:00 +24°C° 1.1 mm 3 mps 662 mmHg 86%
    19:00 +22°C° 0.2 mm 3 mps 663 mmHg 87%
    20:00 +22°C° 0.2 mm 3 mps 663 mmHg 88%
    21:00 +21°C° 0.2 mm 2 mps 663 mmHg 90%
    22:00 +21°C° 0.2 mm 2 mps 663 mmHg 91%
    23:00 +21°C° 0.2 mm 2 mps 663 mmHg 92%
    Show more